sat.trackr.live / text

‹ back to catalog

STARLINK-4414

NORAD 53213 · 2022-084AA

PAYLOAD ACTIVE UNKNOWN

§ Identity

Operator
Country
US
Launch date
2022-07-22
Launch site
AFWTR
Launch vehicle
Mass (kg)
RCS (m²)

Purposes: comms

External: N2YO · Heavens-Above · Gunter

§ Orbital elements

Epoch: 2026-05-25T03:30:52.197408Z

Period
95.64 min
Inclination
97.4520°
Eccentricity
0.0000692
Mean motion
15.05635936 rev/d
Perigee alt
549.1 km
Apogee alt
550.0 km
Semi-major
6,927.7 km
B*
-1.2918e-4
RAAN
205.0980°
Arg perigee
301.1627°
Mean anomaly
58.9533°
Rev number
21,133

§ Raw data

STARLINK-44141 53213U 22084AA  26145.14643747 -.00001921  00000+0 -12918-3 0  99922 53213  97.4520 205.0980 0000692 301.1627  58.9533 15.05635936211330

JSON: /api/v1/satellites/53213 · /tle

For live sub-satellite position, see the globe view (requires WebGL).

§ Visibility from observer

Set your observer location to see the next 7 days of passes ≥ 10°. The values pass through the URL so the page stays shareable.

No JS? Fill the form by hand. The geolocation button needs JavaScript.